owner,sensor,date,latitude,longitude,vertical_datum,sea_water_practical_salinity,qcFlag 
NERRS,ioos:station:NOAA.NERRS:gndbhwq:1,2014-10-01T00:00:00Z,30.4178,-88.4054,1.31,27.3,1111122 
NERRS,ioos:station:NOAA.NERRS:gndbhwq:1,2014-10-01T01:00:00Z,30.4178,-88.4054,1.33,27.3,1111122 
NERRS,ioos:station:NOAA.NERRS:gndbhwq:1,2014-10-01T02:00:00Z,30.4178,-88.4054,1.36,27.3,1111122 
NERRS,ioos:station:NOAA.NERRS:gndbhwq:1,2014-10-01T03:00:00Z,30.4178,-88.4054,1.42,27.3,1111122 
NERRS,ioos:station:NOAA.NERRS:gndbhwq:1,2014-10-01T04:00:00Z,30.4178,-88.4054,1.47,27.3,1111122 
NERRS,ioos:station:NOAA.NERRS:gndbhwq:1,2014-10-01T05:00:00Z,30.4178,-88.4054,1.5,27.3,1111122 
NERRS,ioos:station:NOAA.NERRS:gndbhwq:1,2014-10-01T07:00:00Z,30.4178,-88.4054,1.57,27.3,1111122 
NERRS,ioos:station:NOAA.NERRS:gndbhwq:1,2014-10-01T08:00:00Z,30.4178,-88.4054,1.56,27.3,1111122 
NERRS,ioos:station:NOAA.NERRS:gndbhwq:1,2014-10-01T09:00:00Z,30.4178,-88.4054,1.53,27.3,1111122 
NERRS,ioos:station:NOAA.NERRS:gndbhwq:1,2014-10-01T10:00:00Z,30.4178,-88.4054,1.51,27.3,1111122 
NERRS,ioos:station:NOAA.NERRS:gndbhwq:1,2014-10-01T11:00:00Z,30.4178,-88.4054,1.46,27.3,1111122 
NERRS,ioos:station:NOAA.NERRS:gndbhwq:1,2014-10-01T12:00:00Z,30.4178,-88.4054,1.43,27.3,1111122 
NERRS,ioos:station:NOAA.NERRS:gndbhwq:1,2014-10-01T13:00:00Z,30.4178,-88.4054,1.38,27.3,1111122 
NERRS,ioos:station:NOAA.NERRS:gndbhwq:1,2014-10-01T14:00:00Z,30.4178,-88.4054,1.3,27.3,1111122 
NERRS,ioos:station:NOAA.NERRS:gndbhwq:1,2014-10-01T15:00:00Z,30.4178,-88.4054,1.23,27.3,1111122 
NERRS,ioos:station:NOAA.NERRS:gndbhwq:1,2014-10-01T16:00:00Z,30.4178,-88.4054,1.19,27.3,1111122 
NERRS,ioos:station:NOAA.NERRS:gndbhwq:1,2014-10-01T17:00:00Z,30.4178,-88.4054,1.16,27.3,1111122 
NERRS,ioos:station:NOAA.NERRS:gndbhwq:1,2014-10-01T18:00:00Z,30.4178,-88.4054,1.14,27.3,1111122 
NERRS,ioos:station:NOAA.NERRS:gndbhwq:1,2014-10-01T19:00:00Z,30.4178,-88.4054,1.16,27.3,1111122 
NERRS,ioos:station:NOAA.NERRS:gndbhwq:1,2014-10-01T20:00:00Z,30.4178,-88.4054,1.13,27.4,1111122 
NERRS,ioos:station:NOAA.NERRS:gndbhwq:1,2014-10-01T21:00:00Z,30.4178,-88.4054,1.16,27.4,1111122 
NERRS,ioos:station:NOAA.NERRS:gndbhwq:1,2014-10-01T22:00:00Z,30.4178,-88.4054,1.21,27.3,1111122 
NERRS,ioos:station:NOAA.NERRS:gndbhwq:1,2014-10-01T23:00:00Z,30.4178,-88.4054,1.22,27.3,1111122 
NERRS,ioos:station:NOAA.NERRS:gndbhwq:1,2014-10-02T00:00:00Z,30.4178,-88.4054,1.3,27.3,1111122 
NERRS,ioos:station:NOAA.NERRS:gndbhwq:1,2014-10-02T02:00:00Z,30.4178,-88.4054,1.38,27.3,1111122 
NERRS,ioos:station:NOAA.NERRS:gndbhwq:1,2014-10-02T03:00:00Z,30.4178,-88.4054,1.43,27.3,1111122 
NERRS,ioos:station:NOAA.NERRS:gndbhwq:1,2014-10-02T04:00:00Z,30.4178,-88.4054,1.47,27.2,1111122 
NERRS,ioos:station:NOAA.NERRS:gndbhwq:1,2014-10-02T05:00:00Z,30.4178,-88.4054,1.51,27.2,1111122 
NERRS,ioos:station:NOAA.NERRS:gndbhwq:1,2014-10-02T06:00:00Z,30.4178,-88.4054,1.54,27.2,1111122 
NERRS,ioos:station:NOAA.NERRS:gndbhwq:1,2014-10-02T07:00:00Z,30.4178,-88.4054,1.56,27.2,1111122 
NERRS,ioos:station:NOAA.NERRS:gndbhwq:1,2014-10-02T08:00:00Z,30.4178,-88.4054,1.6,27.2,1111122 
NERRS,ioos:station:NOAA.NERRS:gndbhwq:1,2014-10-02T09:00:00Z,30.4178,-88.4054,1.61,27.2,1111122 
NERRS,ioos:station:NOAA.NERRS:gndbhwq:1,2014-10-02T10:00:00Z,30.4178,-88.4054,1.57,27.3,1111122 
NERRS,ioos:station:NOAA.NERRS:gndbhwq:1,2014-10-02T11:00:00Z,30.4178,-88.4054,1.52,27.2,1111122 
NERRS,ioos:station:NOAA.NERRS:gndbhwq:1,2014-10-02T12:00:00Z,30.4178,-88.4054,1.5,27.2,1111122 
NERRS,ioos:station:NOAA.NERRS:gndbhwq:1,2014-10-02T13:00:00Z,30.4178,-88.4054,1.5,27.2,1111122 
NERRS,ioos:station:NOAA.NERRS:gndbhwq:1,2014-10-02T14:00:00Z,30.4178,-88.4054,1.46,27.2,1111122 
NERRS,ioos:station:NOAA.NERRS:gndbhwq:1,2014-10-02T15:00:00Z,30.4178,-88.4054,1.38,27.2,1111122 
NERRS,ioos:station:NOAA.NERRS:gndbhwq:1,2014-10-02T16:00:00Z,30.4178,-88.4054,1.29,27.2,1111122 
NERRS,ioos:station:NOAA.NERRS:gndbhwq:1,2014-10-02T17:00:00Z,30.4178,-88.4054,1.22,27.3,1111122 
NERRS,ioos:station:NOAA.NERRS:gndbhwq:1,2014-10-02T18:00:00Z,30.4178,-88.4054,1.22,27.2,1111122 
NERRS,ioos:station:NOAA.NERRS:gndbhwq:1,2014-10-02T19:00:00Z,30.4178,-88.4054,1.16,27.2,1111122 
NERRS,ioos:station:NOAA.NERRS:gndbhwq:1,2014-10-02T20:00:00Z,30.4178,-88.4054,1.1,27.2,1111122 
NERRS,ioos:station:NOAA.NERRS:gndbhwq:1,2014-10-02T21:00:00Z,30.4178,-88.4054,1.11,27.2,1111122 
NERRS,ioos:station:NOAA.NERRS:gndbhwq:1,2014-10-02T22:00:00Z,30.4178,-88.4054,1.14,26.9,1111122 
NERRS,ioos:station:NOAA.NERRS:gndbhwq:1,2014-10-02T23:00:00Z,30.4178,-88.4054,1.18,27.2,1111122 
NERRS,ioos:station:NOAA.NERRS:gndbhwq:1,2014-10-03T00:00:00Z,30.4178,-88.4054,1.23,27.2,1111122 
NERRS,ioos:station:NOAA.NERRS:gndbhwq:1,2014-10-03T01:00:00Z,30.4178,-88.4054,1.27,27.1,1111122 
NERRS,ioos:station:NOAA.NERRS:gndbhwq:1,2014-10-03T02:00:00Z,30.4178,-88.4054,1.34,27.1,1111122 
NERRS,ioos:station:NOAA.NERRS:gndbhwq:1,2014-10-03T03:00:00Z,30.4178,-88.4054,1.38,27.1,1111122 
NERRS,ioos:station:NOAA.NERRS:gndbhwq:1,2014-10-03T04:00:00Z,30.4178,-88.4054,1.42,27.1,1111122 
NERRS,ioos:station:NOAA.NERRS:gndbhwq:1,2014-10-03T05:00:00Z,30.4178,-88.4054,1.45,27.1,1111122 
NERRS,ioos:station:NOAA.NERRS:gndbhwq:1,2014-10-03T06:00:00Z,30.4178,-88.4054,1.47,27.1,1111122 
NERRS,ioos:station:NOAA.NERRS:gndbhwq:1,2014-10-03T07:00:00Z,30.4178,-88.4054,1.51,27.1,1111122 
NERRS,ioos:station:NOAA.NERRS:gndbhwq:1,2014-10-03T08:00:00Z,30.4178,-88.4054,1.55,27.1,1111122 
NERRS,ioos:station:NOAA.NERRS:gndbhwq:1,2014-10-03T09:00:00Z,30.4178,-88.4054,1.57,27.1,1111122 
NERRS,ioos:station:NOAA.NERRS:gndbhwq:1,2014-10-03T10:00:00Z,30.4178,-88.4054,1.55,27.1,1111122 
NERRS,ioos:station:NOAA.NERRS:gndbhwq:1,2014-10-03T11:00:00Z,30.4178,-88.4054,1.53,27.1,1111122 
NERRS,ioos:station:NOAA.NERRS:gndbhwq:1,2014-10-03T12:00:00Z,30.4178,-88.4054,1.53,27.1,1111122 
NERRS,ioos:station:NOAA.NERRS:gndbhwq:1,2014-10-03T13:00:00Z,30.4178,-88.4054,1.49,27.1,1111122 
NERRS,ioos:station:NOAA.NERRS:gndbhwq:1,2014-10-03T14:00:00Z,30.4178,-88.4054,1.41,27.1,1111122 
NERRS,ioos:station:NOAA.NERRS:gndbhwq:1,2014-10-03T15:00:00Z,30.4178,-88.4054,1.44,26.9,1111122 
NERRS,ioos:station:NOAA.NERRS:gndbhwq:1,2014-10-03T16:00:00Z,30.4178,-88.4054,1.24,27.2,1111122 
NERRS,ioos:station:NOAA.NERRS:gndbhwq:1,2014-10-03T17:00:00Z,30.4178,-88.4054,1.23,27.2,1111122 
NERRS,ioos:station:NOAA.NERRS:gndbhwq:1,2014-10-03T18:00:00Z,30.4178,-88.4054,1.1,27.2,1111122 
NERRS,ioos:station:NOAA.NERRS:gndbhwq:1,2014-10-03T19:00:00Z,30.4178,-88.4054,1.09,27.2,1111122 
NERRS,ioos:station:NOAA.NERRS:gndbhwq:1,2014-10-03T20:00:00Z,30.4178,-88.4054,1.1,27.1,1111122 
NERRS,ioos:station:NOAA.NERRS:gndbhwq:1,2014-10-03T21:00:00Z,30.4178,-88.4054,1.1,27.1,1111122 
NERRS,ioos:station:NOAA.NERRS:gndbhwq:1,2014-10-03T22:00:00Z,30.4178,-88.4054,0.97,27.1,1111122 
NERRS,ioos:station:NOAA.NERRS:gndbhwq:1,2014-10-03T23:00:00Z,30.4178,-88.4054,0.96,26.9,1111122 
NERRS,ioos:station:NOAA.NERRS:gndbhwq:1,2014-10-04T00:00:00Z,30.4178,-88.4054,0.98,26.7,1111122 
NERRS,ioos:station:NOAA.NERRS:gndbhwq:1,2014-10-04T01:00:00Z,30.4178,-88.4054,1.16,26.6,1111122 
NERRS,ioos:station:NOAA.NERRS:gndbhwq:1,2014-10-04T02:00:00Z,30.4178,-88.4054,1.18,26.7,1111122 
NERRS,ioos:station:NOAA.NERRS:gndbhwq:1,2014-10-04T03:00:00Z,30.4178,-88.4054,1.26,27.0,1111122 
NERRS,ioos:station:NOAA.NERRS:gndbhwq:1,2014-10-04T04:00:00Z,30.4178,-88.4054,1.3,26.8,1111122 
NERRS,ioos:station:NOAA.NERRS:gndbhwq:1,2014-10-04T05:00:00Z,30.4178,-88.4054,1.21,26.7,1111122 
NERRS,ioos:station:NOAA.NERRS:gndbhwq:1,2014-10-04T06:00:00Z,30.4178,-88.4054,1.21,26.8,1111122 
NERRS,ioos:station:NOAA.NERRS:gndbhwq:1,2014-10-04T07:00:00Z,30.4178,-88.4054,1.12,26.8,1111122 
NERRS,ioos:station:NOAA.NERRS:gndbhwq:1,2014-10-04T08:00:00Z,30.4178,-88.4054,1.27,26.8,1111122 
NERRS,ioos:station:NOAA.NERRS:gndbhwq:1,2014-10-04T09:00:00Z,30.4178,-88.4054,1.3,26.8,1111122 
NERRS,ioos:station:NOAA.NERRS:gndbhwq:1,2014-10-04T10:00:00Z,30.4178,-88.4054,1.38,26.8,1111122 
NERRS,ioos:station:NOAA.NERRS:gndbhwq:1,2014-10-04T11:00:00Z,30.4178,-88.4054,1.34,26.8,1111122 
NERRS,ioos:station:NOAA.NERRS:gndbhwq:1,2014-10-04T12:00:00Z,30.4178,-88.4054,1.29,26.8,1111122 
NERRS,ioos:station:NOAA.NERRS:gndbhwq:1,2014-10-04T13:00:00Z,30.4178,-88.4054,1.23,26.8,1111122 
NERRS,ioos:station:NOAA.NERRS:gndbhwq:1,2014-10-04T14:00:00Z,30.4178,-88.4054,1.2,26.8,1111122 
NERRS,ioos:station:NOAA.NERRS:gndbhwq:1,2014-10-04T15:00:00Z,30.4178,-88.4054,1.16,26.8,1111122 
NERRS,ioos:station:NOAA.NERRS:gndbhwq:1,2014-10-04T16:00:00Z,30.4178,-88.4054,1.22,26.5,1111122 
NERRS,ioos:station:NOAA.NERRS:gndbhwq:1,2014-10-04T17:00:00Z,30.4178,-88.4054,1.08,26.6,1111122 
NERRS,ioos:station:NOAA.NERRS:gndbhwq:1,2014-10-04T18:00:00Z,30.4178,-88.4054,1.1,26.9,1111122 
NERRS,ioos:station:NOAA.NERRS:gndbhwq:1,2014-10-04T19:00:00Z,30.4178,-88.4054,1.07,26.9,1111122 
NERRS,ioos:station:NOAA.NERRS:gndbhwq:1,2014-10-04T20:00:00Z,30.4178,-88.4054,1.0,26.9,1111122 
NERRS,ioos:station:NOAA.NERRS:gndbhwq:1,2014-10-04T21:00:00Z,30.4178,-88.4054,0.95,26.9,1111122 
NERRS,ioos:station:NOAA.NERRS:gndbhwq:1,2014-10-04T22:00:00Z,30.4178,-88.4054,0.97,26.9,1111122 
NERRS,ioos:station:NOAA.NERRS:gndbhwq:1,2014-10-04T23:00:00Z,30.4178,-88.4054,0.94,26.9,1111122 
NERRS,ioos:station:NOAA.NERRS:gndbhwq:1,2014-10-05T00:00:00Z,30.4178,-88.4054,0.97,26.9,1111122 
NERRS,ioos:station:NOAA.NERRS:gndbhwq:1,2014-10-05T01:00:00Z,30.4178,-88.4054,1.01,26.9,1111122 
NERRS,ioos:station:NOAA.NERRS:gndbhwq:1,2014-10-05T02:00:00Z,30.4178,-88.4054,1.06,26.9,1111122 
NERRS,ioos:station:NOAA.NERRS:gndbhwq:1,2014-10-05T03:00:00Z,30.4178,-88.4054,1.14,26.8,1111122 
NERRS,ioos:station:NOAA.NERRS:gndbhwq:1,2014-10-05T04:00:00Z,30.4178,-88.4054,1.2,26.8,1111122 
NERRS,ioos:station:NOAA.NERRS:gndbhwq:1,2014-10-05T05:00:00Z,30.4178,-88.4054,1.21,26.8,1111122 
NERRS,ioos:station:NOAA.NERRS:gndbhwq:1,2014-10-05T06:00:00Z,30.4178,-88.4054,1.2,26.8,1111122 
NERRS,ioos:station:NOAA.NERRS:gndbhwq:1,2014-10-05T07:00:00Z,30.4178,-88.4054,1.16,26.8,1111122 
NERRS,ioos:station:NOAA.NERRS:gndbhwq:1,2014-10-05T08:00:00Z,30.4178,-88.4054,1.17,26.8,1111122 
NERRS,ioos:station:NOAA.NERRS:gndbhwq:1,2014-10-05T09:00:00Z,30.4178,-88.4054,1.22,26.8,1111122 
NERRS,ioos:station:NOAA.NERRS:gndbhwq:1,2014-10-05T10:00:00Z,30.4178,-88.4054,1.26,26.8,1111122 
NERRS,ioos:station:NOAA.NERRS:gndbhwq:1,2014-10-05T11:00:00Z,30.4178,-88.4054,1.3,26.8,1111122 
NERRS,ioos:station:NOAA.NERRS:gndbhwq:1,2014-10-05T12:00:00Z,30.4178,-88.4054,1.31,26.8,1111122 
NERRS,ioos:station:NOAA.NERRS:gndbhwq:1,2014-10-05T13:00:00Z,30.4178,-88.4054,1.3,26.8,1111122 
NERRS,ioos:station:NOAA.NERRS:gndbhwq:1,2014-10-05T14:00:00Z,30.4178,-88.4054,1.35,26.8,1111122 
NERRS,ioos:station:NOAA.NERRS:gndbhwq:1,2014-10-05T15:00:00Z,30.4178,-88.4054,1.36,26.8,1111122 
NERRS,ioos:station:NOAA.NERRS:gndbhwq:1,2014-10-05T16:00:00Z,30.4178,-88.4054,1.38,26.8,1111122 
NERRS,ioos:station:NOAA.NERRS:gndbhwq:1,2014-10-05T17:00:00Z,30.4178,-88.4054,1.35,26.8,1111122 
NERRS,ioos:station:NOAA.NERRS:gndbhwq:1,2014-10-05T18:00:00Z,30.4178,-88.4054,1.22,26.8,1111122 
NERRS,ioos:station:NOAA.NERRS:gndbhwq:1,2014-10-05T19:00:00Z,30.4178,-88.4054,1.17,26.8,1111122 
NERRS,ioos:station:NOAA.NERRS:gndbhwq:1,2014-10-05T20:00:00Z,30.4178,-88.4054,1.12,26.8,1111122 
NERRS,ioos:station:NOAA.NERRS:gndbhwq:1,2014-10-05T21:00:00Z,30.4178,-88.4054,1.1,26.8,1111122 
NERRS,ioos:station:NOAA.NERRS:gndbhwq:1,2014-10-05T22:00:00Z,30.4178,-88.4054,1.08,26.7,1111122 
NERRS,ioos:station:NOAA.NERRS:gndbhwq:1,2014-10-05T23:00:00Z,30.4178,-88.4054,1.08,26.7,1111122 
NERRS,ioos:station:NOAA.NERRS:gndbhwq:1,2014-10-06T00:00:00Z,30.4178,-88.4054,1.1,26.6,1111122 
NERRS,ioos:station:NOAA.NERRS:gndbhwq:1,2014-10-06T01:00:00Z,30.4178,-88.4054,1.1,26.6,1111122 
NERRS,ioos:station:NOAA.NERRS:gndbhwq:1,2014-10-06T02:00:00Z,30.4178,-88.4054,1.13,26.6,1111122 
NERRS,ioos:station:NOAA.NERRS:gndbhwq:1,2014-10-06T03:00:00Z,30.4178,-88.4054,1.19,26.6,1111122 
NERRS,ioos:station:NOAA.NERRS:gndbhwq:1,2014-10-06T04:00:00Z,30.4178,-88.4054,1.24,26.6,1111122 
NERRS,ioos:station:NOAA.NERRS:gndbhwq:1,2014-10-06T05:00:00Z,30.4178,-88.4054,1.25,26.6,1111122 
NERRS,ioos:station:NOAA.NERRS:gndbhwq:1,2014-10-06T06:00:00Z,30.4178,-88.4054,1.21,26.6,1111122 
NERRS,ioos:station:NOAA.NERRS:gndbhwq:1,2014-10-06T07:00:00Z,30.4178,-88.4054,1.17,26.6,1111122 
NERRS,ioos:station:NOAA.NERRS:gndbhwq:1,2014-10-06T08:00:00Z,30.4178,-88.4054,1.17,26.6,1111122 
NERRS,ioos:station:NOAA.NERRS:gndbhwq:1,2014-10-06T09:00:00Z,30.4178,-88.4054,1.19,26.6,1111122 
NERRS,ioos:station:NOAA.NERRS:gndbhwq:1,2014-10-06T10:00:00Z,30.4178,-88.4054,1.25,26.6,1111122 
NERRS,ioos:station:NOAA.NERRS:gndbhwq:1,2014-10-06T11:00:00Z,30.4178,-88.4054,1.3,26.6,1111122 
NERRS,ioos:station:NOAA.NERRS:gndbhwq:1,2014-10-06T12:00:00Z,30.4178,-88.4054,1.31,26.6,1111122 
NERRS,ioos:station:NOAA.NERRS:gndbhwq:1,2014-10-06T13:00:00Z,30.4178,-88.4054,1.34,26.6,1111122 
NERRS,ioos:station:NOAA.NERRS:gndbhwq:1,2014-10-06T14:00:00Z,30.4178,-88.4054,1.37,26.6,1111122 
NERRS,ioos:station:NOAA.NERRS:gndbhwq:1,2014-10-06T15:00:00Z,30.4178,-88.4054,1.41,26.6,1111122 
NERRS,ioos:station:NOAA.NERRS:gndbhwq:1,2014-10-06T16:00:00Z,30.4178,-88.4054,1.42,26.6,1111122 
NERRS,ioos:station:NOAA.NERRS:gndbhwq:1,2014-10-06T17:00:00Z,30.4178,-88.4054,1.42,26.6,1111122 
NERRS,ioos:station:NOAA.NERRS:gndbhwq:1,2014-10-06T18:00:00Z,30.4178,-88.4054,1.42,26.6,1111122 
NERRS,ioos:station:NOAA.NERRS:gndbhwq:1,2014-10-06T19:00:00Z,30.4178,-88.4054,1.33,26.6,1111122 
NERRS,ioos:station:NOAA.NERRS:gndbhwq:1,2014-10-06T20:00:00Z,30.4178,-88.4054,1.23,26.7,1111122 
NERRS,ioos:station:NOAA.NERRS:gndbhwq:1,2014-10-06T21:00:00Z,30.4178,-88.4054,1.24,26.7,1111122 
NERRS,ioos:station:NOAA.NERRS:gndbhwq:1,2014-10-06T22:00:00Z,30.4178,-88.4054,1.19,26.6,1111122 
NERRS,ioos:station:NOAA.NERRS:gndbhwq:1,2014-10-06T23:00:00Z,30.4178,-88.4054,1.29,26.8,1111122 
NERRS,ioos:station:NOAA.NERRS:gndbhwq:1,2014-10-07T00:00:00Z,30.4178,-88.4054,1.21,26.5,1111122 
NERRS,ioos:station:NOAA.NERRS:gndbhwq:1,2014-10-07T01:00:00Z,30.4178,-88.4054,1.36,26.6,1111122 
NERRS,ioos:station:NOAA.NERRS:gndbhwq:1,2014-10-07T02:00:00Z,30.4178,-88.4054,1.35,26.5,1111122 
NERRS,ioos:station:NOAA.NERRS:gndbhwq:1,2014-10-07T03:00:00Z,30.4178,-88.4054,1.35,26.5,1111122 
NERRS,ioos:station:NOAA.NERRS:gndbhwq:1,2014-10-07T04:00:00Z,30.4178,-88.4054,1.33,26.5,1111122 
NERRS,ioos:station:NOAA.NERRS:gndbhwq:1,2014-10-07T05:00:00Z,30.4178,-88.4054,1.38,26.5,1111122 
NERRS,ioos:station:NOAA.NERRS:gndbhwq:1,2014-10-07T06:00:00Z,30.4178,-88.4054,1.39,26.5,1111122 
NERRS,ioos:station:NOAA.NERRS:gndbhwq:1,2014-10-07T07:00:00Z,30.4178,-88.4054,1.35,26.5,1111122 
NERRS,ioos:station:NOAA.NERRS:gndbhwq:1,2014-10-07T08:00:00Z,30.4178,-88.4054,1.2,26.5,1111122 
NERRS,ioos:station:NOAA.NERRS:gndbhwq:1,2014-10-07T09:00:00Z,30.4178,-88.4054,1.21,26.5,1111122 
NERRS,ioos:station:NOAA.NERRS:gndbhwq:1,2014-10-07T10:00:00Z,30.4178,-88.4054,1.18,26.5,1111122 
NERRS,ioos:station:NOAA.NERRS:gndbhwq:1,2014-10-07T11:00:00Z,30.4178,-88.4054,1.2,26.5,1111122 
NERRS,ioos:station:NOAA.NERRS:gndbhwq:1,2014-10-07T12:00:00Z,30.4178,-88.4054,1.24,26.5,1111122 
NERRS,ioos:station:NOAA.NERRS:gndbhwq:1,2014-10-07T13:00:00Z,30.4178,-88.4054,1.27,26.5,1111122 
NERRS,ioos:station:NOAA.NERRS:gndbhwq:1,2014-10-07T14:00:00Z,30.4178,-88.4054,1.3,26.5,1111122 
NERRS,ioos:station:NOAA.NERRS:gndbhwq:1,2014-10-07T15:00:00Z,30.4178,-88.4054,1.32,26.5,1111122 
NERRS,ioos:station:NOAA.NERRS:gndbhwq:1,2014-10-07T16:00:00Z,30.4178,-88.4054,1.35,26.5,1111122 
NERRS,ioos:station:NOAA.NERRS:gndbhwq:1,2014-10-07T17:00:00Z,30.4178,-88.4054,1.39,26.5,1111122 
NERRS,ioos:station:NOAA.NERRS:gndbhwq:1,2014-10-07T18:00:00Z,30.4178,-88.4054,1.41,26.5,1111122 
NERRS,ioos:station:NOAA.NERRS:gndbhwq:1,2014-10-07T19:00:00Z,30.4178,-88.4054,1.42,26.5,1111122 
NERRS,ioos:station:NOAA.NERRS:gndbhwq:1,2014-10-07T20:00:00Z,30.4178,-88.4054,1.31,26.5,1111122 
NERRS,ioos:station:NOAA.NERRS:gndbhwq:1,2014-10-07T21:00:00Z,30.4178,-88.4054,1.28,26.6,1111122 
NERRS,ioos:station:NOAA.NERRS:gndbhwq:1,2014-10-07T22:00:00Z,30.4178,-88.4054,1.29,26.6,1111122 
NERRS,ioos:station:NOAA.NERRS:gndbhwq:1,2014-10-07T23:00:00Z,30.4178,-88.4054,1.35,26.5,1111122 
NERRS,ioos:station:NOAA.NERRS:gndbhwq:1,2014-10-08T00:00:00Z,30.4178,-88.4054,1.33,26.6,1111122 
NERRS,ioos:station:NOAA.NERRS:gndbhwq:1,2014-10-08T01:00:00Z,30.4178,-88.4054,1.4,26.4,1111122 
NERRS,ioos:station:NOAA.NERRS:gndbhwq:1,2014-10-08T02:00:00Z,30.4178,-88.4054,1.4,26.5,1111122 
NERRS,ioos:station:NOAA.NERRS:gndbhwq:1,2014-10-08T03:00:00Z,30.4178,-88.4054,1.43,26.3,1111122 
NERRS,ioos:station:NOAA.NERRS:gndbhwq:1,2014-10-08T04:00:00Z,30.4178,-88.4054,1.4,26.3,1111122 
NERRS,ioos:station:NOAA.NERRS:gndbhwq:1,2014-10-08T05:00:00Z,30.4178,-88.4054,1.39,26.3,1111122 
NERRS,ioos:station:NOAA.NERRS:gndbhwq:1,2014-10-08T07:00:00Z,30.4178,-88.4054,1.36,26.3,1111122 
NERRS,ioos:station:NOAA.NERRS:gndbhwq:1,2014-10-08T08:00:00Z,30.4178,-88.4054,1.3,26.3,1111122 
NERRS,ioos:station:NOAA.NERRS:gndbhwq:1,2014-10-08T09:00:00Z,30.4178,-88.4054,1.21,26.2,1111122 
NERRS,ioos:station:NOAA.NERRS:gndbhwq:1,2014-10-08T10:00:00Z,30.4178,-88.4054,1.16,26.3,1111122 
NERRS,ioos:station:NOAA.NERRS:gndbhwq:1,2014-10-08T11:00:00Z,30.4178,-88.4054,1.15,26.3,1111122 
NERRS,ioos:station:NOAA.NERRS:gndbhwq:1,2014-10-08T12:00:00Z,30.4178,-88.4054,1.19,26.3,1111122 
NERRS,ioos:station:NOAA.NERRS:gndbhwq:1,2014-10-08T13:00:00Z,30.4178,-88.4054,1.25,26.3,1111122 
NERRS,ioos:station:NOAA.NERRS:gndbhwq:1,2014-10-08T14:00:00Z,30.4178,-88.4054,1.29,26.3,1111122 
NERRS,ioos:station:NOAA.NERRS:gndbhwq:1,2014-10-08T15:00:00Z,30.4178,-88.4054,1.33,26.3,1111122 
NERRS,ioos:station:NOAA.NERRS:gndbhwq:1,2014-10-08T16:00:00Z,30.4178,-88.4054,1.33,26.3,1111122 
NERRS,ioos:station:NOAA.NERRS:gndbhwq:1,2014-10-08T17:00:00Z,30.4178,-88.4054,1.37,26.3,1111122 
NERRS,ioos:station:NOAA.NERRS:gndbhwq:1,2014-10-08T18:00:00Z,30.4178,-88.4054,1.4,26.4,1111122 
NERRS,ioos:station:NOAA.NERRS:gndbhwq:1,2014-10-08T19:00:00Z,30.4178,-88.4054,1.44,26.4,1111122 
NERRS,ioos:station:NOAA.NERRS:gndbhwq:1,2014-10-08T20:00:00Z,30.4178,-88.4054,1.43,26.3,1111122 
NERRS,ioos:station:NOAA.NERRS:gndbhwq:1,2014-10-08T21:00:00Z,30.4178,-88.4054,1.4,26.4,1111122 
NERRS,ioos:station:NOAA.NERRS:gndbhwq:1,2014-10-08T22:00:00Z,30.4178,-88.4054,1.38,26.4,1111122 
NERRS,ioos:station:NOAA.NERRS:gndbhwq:1,2014-10-08T23:00:00Z,30.4178,-88.4054,1.37,26.4,1111122 
NERRS,ioos:station:NOAA.NERRS:gndbhwq:1,2014-10-09T00:00:00Z,30.4178,-88.4054,1.4,26.3,1111122 
NERRS,ioos:station:NOAA.NERRS:gndbhwq:1,2014-10-09T01:00:00Z,30.4178,-88.4054,1.46,26.2,1111122 
NERRS,ioos:station:NOAA.NERRS:gndbhwq:1,2014-10-09T02:00:00Z,30.4178,-88.4054,1.51,26.2,1111122 
NERRS,ioos:station:NOAA.NERRS:gndbhwq:1,2014-10-09T03:00:00Z,30.4178,-88.4054,1.53,26.2,1111122 
NERRS,ioos:station:NOAA.NERRS:gndbhwq:1,2014-10-09T04:00:00Z,30.4178,-88.4054,1.5,26.2,1111122 
NERRS,ioos:station:NOAA.NERRS:gndbhwq:1,2014-10-09T05:00:00Z,30.4178,-88.4054,1.42,26.2,1111122 
NERRS,ioos:station:NOAA.NERRS:gndbhwq:1,2014-10-09T06:00:00Z,30.4178,-88.4054,1.41,26.2,1111122 
NERRS,ioos:station:NOAA.NERRS:gndbhwq:1,2014-10-09T07:00:00Z,30.4178,-88.4054,1.38,26.2,1111122 
NERRS,ioos:station:NOAA.NERRS:gndbhwq:1,2014-10-09T08:00:00Z,30.4178,-88.4054,1.33,26.2,1111122 
NERRS,ioos:station:NOAA.NERRS:gndbhwq:1,2014-10-09T09:00:00Z,30.4178,-88.4054,1.23,26.3,1111122 
NERRS,ioos:station:NOAA.NERRS:gndbhwq:1,2014-10-09T10:00:00Z,30.4178,-88.4054,1.14,26.3,1111122 
NERRS,ioos:station:NOAA.NERRS:gndbhwq:1,2014-10-09T11:00:00Z,30.4178,-88.4054,1.1,26.3,1111122 
NERRS,ioos:station:NOAA.NERRS:gndbhwq:1,2014-10-09T12:00:00Z,30.4178,-88.4054,1.07,26.3,1111122 
NERRS,ioos:station:NOAA.NERRS:gndbhwq:1,2014-10-09T13:00:00Z,30.4178,-88.4054,1.14,26.3,1111122 
NERRS,ioos:station:NOAA.NERRS:gndbhwq:1,2014-10-09T14:00:00Z,30.4178,-88.4054,1.18,26.3,1111122 
NERRS,ioos:station:NOAA.NERRS:gndbhwq:1,2014-10-09T15:00:00Z,30.4178,-88.4054,1.21,26.3,1111122 
NERRS,ioos:station:NOAA.NERRS:gndbhwq:1,2014-10-09T16:00:00Z,30.4178,-88.4054,1.23,26.3,1111122 
NERRS,ioos:station:NOAA.NERRS:gndbhwq:1,2014-10-09T17:00:00Z,30.4178,-88.4054,1.24,26.3,1111122 
NERRS,ioos:station:NOAA.NERRS:gndbhwq:1,2014-10-09T18:00:00Z,30.4178,-88.4054,1.28,26.8,1111122 
NERRS,ioos:station:NOAA.NERRS:gndbhwq:1,2014-10-09T19:00:00Z,30.4178,-88.4054,1.31,26.8,1111122 
NERRS,ioos:station:NOAA.NERRS:gndbhwq:1,2014-10-09T20:00:00Z,30.4178,-88.4054,1.34,26.7,1111122 
NERRS,ioos:station:NOAA.NERRS:gndbhwq:1,2014-10-09T21:00:00Z,30.4178,-88.4054,1.37,26.8,1111122 
NERRS,ioos:station:NOAA.NERRS:gndbhwq:1,2014-10-09T22:00:00Z,30.4178,-88.4054,1.33,26.8,1111122 
NERRS,ioos:station:NOAA.NERRS:gndbhwq:1,2014-10-09T23:00:00Z,30.4178,-88.4054,1.37,26.8,1111122 
NERRS,ioos:station:NOAA.NERRS:gndbhwq:1,2014-10-10T00:00:00Z,30.4178,-88.4054,1.39,26.7,1111122 
NERRS,ioos:station:NOAA.NERRS:gndbhwq:1,2014-10-10T02:00:00Z,30.4178,-88.4054,1.54,26.7,1111122 
NERRS,ioos:station:NOAA.NERRS:gndbhwq:1,2014-10-10T03:00:00Z,30.4178,-88.4054,1.57,26.7,1111122 
NERRS,ioos:station:NOAA.NERRS:gndbhwq:1,2014-10-10T04:00:00Z,30.4178,-88.4054,1.58,26.7,1111122 
NERRS,ioos:station:NOAA.NERRS:gndbhwq:1,2014-10-10T05:00:00Z,30.4178,-88.4054,1.53,26.7,1111122 
NERRS,ioos:station:NOAA.NERRS:gndbhwq:1,2014-10-10T06:00:00Z,30.4178,-88.4054,1.48,26.7,1111122 
NERRS,ioos:station:NOAA.NERRS:gndbhwq:1,2014-10-10T07:00:00Z,30.4178,-88.4054,1.46,26.7,1111122 
NERRS,ioos:station:NOAA.NERRS:gndbhwq:1,2014-10-10T08:00:00Z,30.4178,-88.4054,1.41,26.7,1111122 
NERRS,ioos:station:NOAA.NERRS:gndbhwq:1,2014-10-10T09:00:00Z,30.4178,-88.4054,1.34,26.7,1111122 
NERRS,ioos:station:NOAA.NERRS:gndbhwq:1,2014-10-10T10:00:00Z,30.4178,-88.4054,1.21,26.7,1111122 
NERRS,ioos:station:NOAA.NERRS:gndbhwq:1,2014-10-10T11:00:00Z,30.4178,-88.4054,1.13,26.8,1111122 
NERRS,ioos:station:NOAA.NERRS:gndbhwq:1,2014-10-10T12:00:00Z,30.4178,-88.4054,1.08,26.8,1111122 
NERRS,ioos:station:NOAA.NERRS:gndbhwq:1,2014-10-10T13:00:00Z,30.4178,-88.4054,1.08,26.8,1111122 
NERRS,ioos:station:NOAA.NERRS:gndbhwq:1,2014-10-10T14:00:00Z,30.4178,-88.4054,1.09,26.8,1111122 
NERRS,ioos:station:NOAA.NERRS:gndbhwq:1,2014-10-10T15:00:00Z,30.4178,-88.4054,1.14,26.8,1111122 
NERRS,ioos:station:NOAA.NERRS:gndbhwq:1,2014-10-10T16:00:00Z,30.4178,-88.4054,1.18,26.8,1111122 
NERRS,ioos:station:NOAA.NERRS:gndbhwq:1,2014-10-10T17:00:00Z,30.4178,-88.4054,1.16,26.8,1111122 
NERRS,ioos:station:NOAA.NERRS:gndbhwq:1,2014-10-10T18:00:00Z,30.4178,-88.4054,1.18,26.8,1111122 
NERRS,ioos:station:NOAA.NERRS:gndbhwq:1,2014-10-10T19:00:00Z,30.4178,-88.4054,1.23,26.8,1111122 
NERRS,ioos:station:NOAA.NERRS:gndbhwq:1,2014-10-10T20:00:00Z,30.4178,-88.4054,1.29,26.8,1111122 
NERRS,ioos:station:NOAA.NERRS:gndbhwq:1,2014-10-10T21:00:00Z,30.4178,-88.4054,1.32,26.9,1111122 
NERRS,ioos:station:NOAA.NERRS:gndbhwq:1,2014-10-10T22:00:00Z,30.4178,-88.4054,1.34,26.8,1111122 
NERRS,ioos:station:NOAA.NERRS:gndbhwq:1,2014-10-10T23:00:00Z,30.4178,-88.4054,1.35,26.9,1111122 
NERRS,ioos:station:NOAA.NERRS:gndbhwq:1,2014-10-11T00:00:00Z,30.4178,-88.4054,1.38,26.8,1111122 
NERRS,ioos:station:NOAA.NERRS:gndbhwq:1,2014-10-11T01:00:00Z,30.4178,-88.4054,1.44,26.8,1111122 
NERRS,ioos:station:NOAA.NERRS:gndbhwq:1,2014-10-11T02:00:00Z,30.4178,-88.4054,1.5,26.8,1111122 
NERRS,ioos:station:NOAA.NERRS:gndbhwq:1,2014-10-11T03:00:00Z,30.4178,-88.4054,1.56,26.8,1111122 
NERRS,ioos:station:NOAA.NERRS:gndbhwq:1,2014-10-11T04:00:00Z,30.4178,-88.4054,1.6,26.8,1111122 
NERRS,ioos:station:NOAA.NERRS:gndbhwq:1,2014-10-11T05:00:00Z,30.4178,-88.4054,1.61,26.8,1111122 
NERRS,ioos:station:NOAA.NERRS:gndbhwq:1,2014-10-11T06:00:00Z,30.4178,-88.4054,1.56,26.8,1111122 
NERRS,ioos:station:NOAA.NERRS:gndbhwq:1,2014-10-11T07:00:00Z,30.4178,-88.4054,1.52,26.8,1111122 
NERRS,ioos:station:NOAA.NERRS:gndbhwq:1,2014-10-11T08:00:00Z,30.4178,-88.4054,1.48,26.8,1111122 
NERRS,ioos:station:NOAA.NERRS:gndbhwq:1,2014-10-11T09:00:00Z,30.4178,-88.4054,1.43,26.8,1111122 